Location: The Saddle
(36.8333°N, 80.3417°W)
Time: 05:01:31
(UTC-04:00)

Tiros 1 - Pass Details

Date: 22 January 2022
Orbit: 630 x 663 km, 48.4° (Epoch: 29 May)

Event Time Altitude Azimuth Distance (km) Brightness Sun altitude
Exits shadow 05:51:49 35° 324° (NW) 1,054 7.8 -19.6°
Maximum altitude 05:53:41 63° 31° (NNE) 720 7.4 -19.3°
Drops below altitude 10° 05:58:18 10° 114° (ESE) 2,023 10.9 -18.4°
Sets 06:00:38 0° 117° (ESE) 2,924 12.0 -17.9°
